TDRS 12

Last updated on Fri Jul 11 2025 00:02:36 GMT+0000 (Coordinated Universal Time)

1 39504U 14004A 25191.48213902 -.00000259 00000+0 00000+0 0 9992 2 39504 3.6910 12.4972 0004669 188.6511 220.0554 1.00266396 40850
UTC large
Height (km)
Speed (km/s)
/
Latitude / Longitude
Inclination (degrees)
Orbital Period (minutes)
Azimuth
Elevation
Range (km)
Doppler Factor

Next 0 passes for location: London (51.5072 / 0.1276)

Sorry there are no passes over London.